New Paris, IN

12:40 AM EST on February 25, 2017 (GMT -0500)
Goshen Municipal

Weather History for KGSH - January, 2013

Change the Weather History Date:

Wednesday, January 30, 2013

  Actual Average Record
Temperature  
Mean Temperature 42 °F -  
Max Temperature 55 °F 31 °F 55 °F (2013)
Min Temperature 28 °F 18 °F -13 °F (1966)
Degree Days  
Heating Degree Days 24    
Moisture  
Dew Point 42 °F    
Average Humidity 88    
Maximum Humidity 96    
Minimum Humidity 76    
Precipitation  
Precipitation 0.99 in - - ()
Sea Level Pressure  
Sea Level Pressure 29.32 in    
Wind  
Wind Speed 12 mph (WSW)    
Max Wind Speed 26 mph    
Max Gust Speed 34 mph    
Visibility 5 miles    
Events Fog , Rain , Snow , Thunderstorm    
Averages and records for this station are not official NWS values.
T = Trace of Precipitation, MM = Missing Value Source: NWS Daily Summary

Daily Weather History Graph

Daily Weather History Graph

Search for Another Location

Airport or City:

Trip Planner

Search our weather history database for the weather conditions in past years. The results will help you decide how hot, cold, wet, or windy it might be!

Date:

Astronomy

Jan. 30, 2013 Rise Set
Actual Time 7:56 AM EST 5:56 PM EST
Civil Twilight 7:27 AM EST 6:26 PM EST
Nautical Twilight 6:53 AM EST 6:59 PM EST
Astronomical Twilight 6:21 AM EST 7:32 PM EST
Moon 9:58 PM EST (1/30) 9:20 AM EST (1/30)
Length of Visible Light 10h 59m
Length of Day
10h 00m
Waning Gibbous, 88% of the Moon is Illuminated
Jan 30
Waning Gibbous
Feb 3
Last Quarter
Feb 10
New
Feb 17
First Quarter
Feb 25
Full

Hourly Weather History & Observations

Time (EST) Temp. Windchill Dew Point Humidity Pressure Visibility Wind Dir Wind Speed Gust Speed Precip Events Conditions
12:00 AM 55.4 °F - 53.6 °F 94% 29.39 in 8.0 mi NW 8.1 mph - 0.00 in Rain Light Rain
12:13 AM 55.4 °F - 53.6 °F 94% 29.39 in 10.0 mi WNW 6.9 mph - 0.01 in Rain Light Rain
12:24 AM 55.4 °F - 51.8 °F 88% 29.38 in 10.0 mi West 8.1 mph - 0.01 in   Overcast
12:31 AM 55.4 °F - 51.8 °F 88% 29.37 in 10.0 mi WNW 4.6 mph - 0.01 in Rain , Thunderstorm Light Rain
12:53 AM 54.0 °F - 52.0 °F 93% 29.36 in 2.5 mi NW 10.4 mph - 0.13 in Rain , Thunderstorm Heavy Rain
1:03 AM 53.6 °F - 51.8 °F 94% 29.37 in 1.8 mi WNW 16.1 mph - 0.09 in Rain , Thunderstorm Heavy Thunderstorms and Rain
1:13 AM 53.6 °F - 51.8 °F 94% 29.40 in 1.2 mi West 15.0 mph - 0.24 in Rain , Thunderstorm Heavy Thunderstorms and Rain
1:34 AM 53.6 °F - 51.8 °F 94% 29.37 in 2.5 mi NW 18.4 mph 21.9 mph 0.41 in Rain Rain
1:38 AM 53.6 °F - 51.8 °F 94% 29.37 in 3.0 mi NW 17.3 mph 24.2 mph 0.43 in Rain Rain
1:53 AM 53.1 °F - 51.1 °F 93% 29.37 in 4.0 mi WNW 13.8 mph - 0.46 in Rain Rain
2:40 AM 53.6 °F - 51.8 °F 94% 29.40 in 4.0 mi West 11.5 mph - 0.10 in Rain Rain
2:50 AM 53.6 °F - 51.8 °F 94% 29.38 in 5.0 mi NW 8.1 mph - 0.11 in Rain Light Rain
2:53 AM 53.1 °F - 51.1 °F 93% 29.37 in 5.0 mi NW 6.9 mph - 0.11 in Rain Light Rain
3:45 AM 51.8 °F - 50.0 °F 94% 29.36 in 1.8 mi Calm Calm - 0.05 in Rain Light Rain
3:53 AM 51.1 °F - 50.0 °F 96% 29.36 in 1.0 mi Calm Calm - 0.07 in Rain Light Rain
4:00 AM 51.8 °F - 48.2 °F 88% 29.36 in 0.5 mi South 3.5 mph - 0.01 in Fog , Rain Rain
4:15 AM 51.8 °F - 48.2 °F 88% 29.36 in 0.8 mi South 3.5 mph - 0.05 in Rain Rain
4:44 AM 51.8 °F - 50.0 °F 94% 29.38 in 2.0 mi SW 5.8 mph - 0.11 in Rain Light Rain
4:53 AM 51.1 °F - 48.9 °F 92% 29.39 in 4.0 mi South 6.9 mph - 0.13 in Rain Rain
5:53 AM 50.0 °F - 48.0 °F 93% 29.32 in 5.0 mi SE 4.6 mph - 0.04 in   Overcast
6:53 AM 48.9 °F - 46.9 °F 93% 29.30 in 10.0 mi SSE 8.1 mph - 0.00 in Rain Light Rain
7:24 AM 48.2 °F - 46.4 °F 93% 29.30 in 10.0 mi SSW 4.6 mph - 0.00 in   Partly Cloudy
7:38 AM 50.0 °F - 46.4 °F 87% 29.29 in 10.0 mi SSW 3.5 mph - 0.00 in   Mostly Cloudy
7:53 AM 48.9 °F - 46.9 °F 93% 29.29 in 10.0 mi South 3.5 mph - 0.00 in   Overcast
8:53 AM 50.0 °F - 46.9 °F 89% 29.32 in 4.0 mi SW 9.2 mph - N/A   Overcast
9:39 AM 50.0 °F - 46.4 °F 87% 29.32 in 3.0 mi SW 9.2 mph - N/A   Overcast
9:46 AM 48.2 °F - 46.4 °F 93% 29.33 in 2.5 mi SW 8.1 mph - N/A   Overcast
9:53 AM 48.9 °F - 46.9 °F 93% 29.33 in 1.8 mi SW 8.1 mph - N/A   Overcast
10:53 AM 50.0 °F - 48.0 °F 93% 29.29 in 2.0 mi SSW 11.5 mph - N/A   Overcast
11:03 AM 50.0 °F - 48.2 °F 94% 29.29 in 4.0 mi SSW 12.7 mph - N/A   Overcast
11:25 AM 50.0 °F - 48.2 °F 94% 29.28 in 5.0 mi SSW 15.0 mph 20.7 mph N/A   Overcast
11:53 AM 51.1 °F - 48.0 °F 89% 29.26 in 5.0 mi South 15.0 mph 24.2 mph N/A   Overcast
12:37 PM 51.8 °F - 48.2 °F 88% 29.22 in 2.5 mi SSW 16.1 mph 26.5 mph N/A   Overcast
12:49 PM 51.8 °F - 48.2 °F 88% 29.23 in 3.0 mi SSW 19.6 mph 25.3 mph N/A   Overcast
12:53 PM 51.1 °F - 48.0 °F 89% 29.24 in 3.0 mi SSW 20.7 mph 26.5 mph N/A   Overcast
1:11 PM 51.8 °F - 48.2 °F 88% 29.23 in 2.5 mi SSW 17.3 mph 27.6 mph 0.00 in Rain Light Rain
1:20 PM 51.8 °F - 48.2 °F 88% 29.25 in 5.0 mi SSW 20.7 mph 26.5 mph 0.00 in   Overcast
1:31 PM 51.8 °F - 48.2 °F 88% 29.23 in 10.0 mi SSW 17.3 mph - 0.00 in   Overcast
1:34 PM 51.8 °F - 48.2 °F 88% 29.23 in 10.0 mi SSW 16.1 mph - 0.00 in   Overcast
1:44 PM 51.8 °F - 46.4 °F 82% 29.22 in 8.0 mi SSW 18.4 mph - 0.00 in   Overcast
1:53 PM 51.1 °F - 46.9 °F 86% 29.22 in 9.0 mi SSW 18.4 mph 26.5 mph 0.00 in   Overcast
2:01 PM 51.8 °F - 46.4 °F 82% 29.21 in 5.0 mi SSW 19.6 mph 26.5 mph 0.00 in Rain Light Rain
2:08 PM 50.0 °F - 46.4 °F 87% 29.20 in 4.0 mi SSW 15.0 mph 28.8 mph 0.00 in Rain Light Rain
2:44 PM 53.6 °F - 48.2 °F 82% 29.16 in 10.0 mi SSW 20.7 mph 24.2 mph 0.01 in   Overcast
2:53 PM 52.0 °F - 46.9 °F 83% 29.17 in 10.0 mi SSW 19.6 mph 26.5 mph 0.01 in   Overcast
3:25 PM 48.2 °F - 41.0 °F 76% 29.20 in 9.0 mi SW 18.4 mph 29.9 mph 0.00 in Rain Light Rain
3:53 PM 46.0 °F 39.9 °F 41.0 °F 83% 29.21 in 5.0 mi SW 13.8 mph - 0.02 in Rain Light Rain
4:38 PM 42.8 °F 33.8 °F 37.4 °F 81% 29.20 in 10.0 mi WSW 21.9 mph 31.1 mph 0.02 in Rain Light Rain
4:53 PM 41.0 °F 31.6 °F 36.0 °F 82% 29.22 in 10.0 mi SW 20.7 mph 26.5 mph 0.02 in   Overcast
5:53 PM 39.0 °F 29.9 °F 34.0 °F 82% 29.24 in 10.0 mi WSW 17.3 mph 25.3 mph 0.00 in Rain Light Rain
6:53 PM 37.9 °F 28.2 °F 33.1 °F 83% 29.25 in 10.0 mi SW 18.4 mph 27.6 mph 0.00 in Rain Light Rain
7:18 PM 35.6 °F 24.0 °F 33.8 °F 93% 29.27 in 8.0 mi West 23.0 mph 31.1 mph 0.00 in Rain Light Rain
7:53 PM 34.0 °F 22.1 °F 30.0 °F 85% 29.31 in 8.0 mi West 21.9 mph 34.5 mph 0.00 in   Overcast
8:40 PM 32.0 °F 19.5 °F 28.4 °F 87% 29.33 in 2.0 mi WNW 21.9 mph 29.9 mph 0.00 in Snow Light Snow
8:53 PM 32.0 °F 19.5 °F 28.0 °F 85% 29.35 in 2.0 mi WNW 21.9 mph 32.2 mph 0.00 in Snow Light Snow
9:02 PM 32.0 °F 20.5 °F 28.4 °F 87% 29.34 in 4.0 mi WNW 18.4 mph 25.3 mph 0.00 in Snow Light Snow
9:09 PM 32.0 °F 19.8 °F 26.6 °F 80% 29.35 in 2.5 mi West 20.7 mph 27.6 mph 0.00 in Snow Light Snow
9:14 PM 30.2 °F 18.5 °F 28.4 °F 93% 29.35 in 1.0 mi WNW 17.3 mph 27.6 mph 0.00 in Snow Light Snow
9:17 PM 30.2 °F 18.9 °F 28.4 °F 93% 29.35 in 0.5 mi WNW 16.1 mph 25.3 mph 0.00 in Fog , Snow Snow
9:24 PM 30.2 °F 16.8 °F 26.6 °F 86% 29.36 in 1.0 mi WNW 23.0 mph 28.8 mph 0.00 in Snow Light Snow
9:28 PM 30.2 °F 17.8 °F 26.6 °F 86% 29.36 in 3.0 mi WNW 19.6 mph 28.8 mph 0.00 in Snow Light Snow
9:44 PM 30.2 °F 17.4 °F 26.6 °F 86% 29.37 in 4.0 mi West 20.7 mph 29.9 mph 0.00 in Snow Light Snow
9:53 PM 30.9 °F 16.9 °F 25.0 °F 79% 29.39 in 6.0 mi West 26.5 mph 32.2 mph 0.00 in Snow Light Snow
10:28 PM 30.2 °F 17.1 °F 24.8 °F 80% 29.39 in 7.0 mi WNW 21.9 mph 28.8 mph 0.00 in Snow Light Snow
10:39 PM 30.2 °F 18.5 °F 24.8 °F 80% 29.40 in 8.0 mi West 17.3 mph 28.8 mph 0.00 in Snow Light Snow
10:53 PM 30.0 °F 17.9 °F 24.1 °F 79% 29.43 in 8.0 mi WNW 18.4 mph 27.6 mph 0.00 in Snow Light Snow
11:01 PM 30.2 °F 17.8 °F 24.8 °F 80% 29.42 in 7.0 mi West 19.6 mph 27.6 mph 0.00 in Snow Light Snow
11:11 PM 28.4 °F 16.6 °F 24.8 °F 86% 29.42 in 2.5 mi West 16.1 mph 29.9 mph 0.00 in Snow Light Snow
11:21 PM 28.4 °F 15.4 °F 24.8 °F 86% 29.43 in 2.0 mi West 19.6 mph 31.1 mph 0.00 in Snow Light Snow
11:44 PM 28.4 °F 15.4 °F 24.8 °F 86% 29.45 in 9.0 mi West 19.6 mph 31.1 mph 0.00 in Snow Light Snow
11:53 PM 28.9 °F 14.5 °F 23.0 °F 78% 29.47 in 9.0 mi West 25.3 mph 33.4 mph 0.00 in Snow Light Snow